Home > Weather > Warsaw > Past weeks

Flag for Poland Past Weather in Warsaw, Poland — Yesterday and Last 2 Weeks

Now
55 °F

Fog.


Feels Like: 55 °F
Forecast: 56 / 79 °F
Wind: No wind

Location: Warsaw Okecie Airport

Current Time: Aug 25, 2016 at 3:16:17 AM

Latest Report: Aug 25, 2016 at 3:00 AM


Visibility: N/A

Pressure: 30.30 "Hg

Humidity: 100%

Dew Point: 55 °F

Location of WarsawLocation

Past Weather in Warsaw — Graph

°F

Warsaw Temperature Yesterday

Maximum temperature yesterday: 72 °F (at 11:30 AM)
Minimum temperature yesterday: 57 °F (at 11:00 PM)
Average temperature yesterday: 66 °F

High & Low Weather Summary for the Past Weeks

 TemperatureHumidityPressure
High84 °F (Aug 20, 2:00 PM)100% (Aug 11, 1:30 AM)30.30 "Hg (Aug 11, 1:30 AM)
Low43 °F (Aug 12, 5:00 AM)35% (Aug 12, 3:00 PM)29.83 "Hg (Aug 18, 4:00 AM)
Average63 °F73%30.07 "Hg
* Reported Aug 10 2:00 AM — Aug 25 2:00 AM, Warsaw, Weather by CustomWeather, © 2016

Note: Actual official high and low records may vary slightly from our data, if they occured in-between our weather recording intervals... More about our weather records

Advertising

Warsaw Weather History for the Previous 24 Hours

Scroll right to see more
 ConditionsComfort  
Time TempWeatherWind HumidityBarometerVisibility
2:00 AM
Thu, Aug 25
55 °FFog.1 mph100%30.30 "HgN/A
1:30 AM55 °FFog.1 mph100%30.30 "HgN/A
1:00 AM57 °FFog.2 mph100%30.30 "HgN/A
12:30 AM57 °FFog.1 mph94%30.30 "HgN/A
12:00 AM59 °FClear.2 mph94%30.30 "Hg10 mi
11:30 PM
Wed, Aug 24
59 °FClear.2 mph94%30.30 "Hg10 mi
11:00 PM57 °FClear.2 mph94%30.30 "Hg10 mi
10:30 PM59 °FClear.2 mph94%30.30 "Hg10 mi
10:00 PM61 °FClear.2 mph88%30.30 "Hg10 mi
9:30 PM61 °FClear.2 mph88%30.30 "Hg10 mi
9:00 PM61 °FClear.5 mph83%30.30 "Hg10 mi
8:30 PM68 °FSunny.5 mph64%30.30 "Hg10 mi
8:00 PM66 °FSunny.6 mph68%30.27 "Hg10 mi
7:30 PM68 °FPassing clouds.5 mph60%30.27 "HgN/A
7:00 PM70 °FPassing clouds.6 mph57%30.27 "HgN/A
6:30 PM72 °FPassing clouds.8 mph57%30.30 "HgN/A
6:00 PM70 °FPassing clouds.6 mph64%30.30 "HgN/A
5:30 PM72 °FPassing clouds.7 mph57%30.30 "HgN/A
5:00 PM70 °FScattered clouds.8 mph60%30.30 "HgN/A
4:30 PM70 °FPartly sunny.8 mph64%30.30 "HgN/A
4:00 PM70 °FPartly sunny.8 mph64%30.30 "HgN/A
3:30 PM68 °FPassing clouds.9 mph69%30.30 "HgN/A
3:00 PM70 °FScattered clouds.10 mph64%30.30 "HgN/A
2:30 PM70 °FPartly sunny.9 mph64%30.30 "HgN/A
2:00 PM70 °FBroken clouds.9 mph60%30.30 "HgN/A
1:30 PM70 °FBroken clouds.8 mph60%30.30 "HgN/A
1:00 PM72 °FBroken clouds.7 mph61%30.30 "HgN/A
12:30 PM72 °FBroken clouds.9 mph53%30.30 "HgN/A
12:00 PM72 °FBroken clouds.9 mph61%30.30 "HgN/A
11:30 AM72 °FScattered clouds.8 mph57%30.30 "HgN/A
11:00 AM70 °FScattered clouds.8 mph64%30.30 "HgN/A
10:30 AM68 °FScattered clouds.7 mph69%30.30 "HgN/A
10:00 AM68 °FScattered clouds.5 mph69%30.30 "HgN/A
9:30 AM66 °FScattered clouds.7 mph73%30.30 "HgN/A
9:00 AM66 °FScattered clouds.6 mph73%30.30 "HgN/A
8:30 AM64 °FScattered clouds.7 mph78%30.30 "HgN/A
8:00 AM64 °FPassing clouds.5 mph83%30.30 "HgN/A
7:30 AM63 °FPassing clouds.7 mph88%30.30 "HgN/A
7:00 AM63 °FScattered clouds.7 mph88%30.30 "HgN/A
6:30 AM61 °FPassing clouds.7 mph94%30.27 "HgN/A
6:00 AM61 °FPassing clouds.6 mph94%30.27 "HgN/A
5:30 AM61 °FPassing clouds.7 mph94%30.27 "HgN/A
5:00 AM63 °FPassing clouds.3 mph94%30.27 "HgN/A
4:30 AM63 °FPassing clouds.5 mph94%30.27 "HgN/A
4:00 AM63 °FPartly cloudy.5 mph94%30.27 "HgN/A
3:30 AM63 °FPassing clouds.5 mph94%30.27 "HgN/A
3:00 AM63 °FPassing clouds.6 mph94%30.27 "HgN/A
Weather by CustomWeather, © 2016

See weather overviewHow to use our weather pages